Regional Weather Roundup
Issued by NWS Portland, ME

Home | Current Version | Previous Version | Text Only | Print | Product List | Glossary On
Versions: 1 2 3 4 5 6 7 8 9 10 11 12 13 14 15 16 17 18 19 20 21 22 23 24 25 26 27 28 29 30 31 32 33 34 35 36 37 38 39 40 41 42 43 44 45 46 47 48 49 50
000
ASUS41 KGYX 031310
RWRGYX
WEATHER ROUNDUP FOR MAINE AND NEW HAMPSHIRE
NATIONAL WEATHER SERVICE GRAY ME
900 AM EDT SUN MAY 03 2015

MEZ002-005-006-010-012-015-018-020-021-024-026-027-029-031400-
MAINE

CITY           SKY/WX    TMP DP  RH WIND       PRES   REMARKS
PORTLAND       CLOUDY    47  44  90 VRB3      30.08R
SANFORD        SUNNY     50  43  76 E3        30.06S
BAR HARBOR     PTSUNNY   43  41  93 S8        30.08S
WISCASSET      CLOUDY    43  41  93 VRB3      30.09S
ROCKLAND       CLOUDY    41  39  93 S5        30.07S
FRYEBURG       SUNNY     53  41  63 VRB3      30.04S
LEWISTONAUBURN CLOUDY    43  39  87 S5        30.06S
AUGUSTA        CLOUDY    42  41  96 VRB3      30.06S
WATERVILLE     CLOUDY    43  37  81 SW6       30.04R
BANGOR         MOSUNNY   47  39  74 VRB5      30.06R
GREENVILLE       N/A     55  39  54 VRB3      30.00R
MILLINOCKET    SUNNY     50  38  63 CALM      30.05R
HOULTON        SUNNY     51  37  58 N5        30.04R
PRESQUE ISLE   SUNNY     48  30  49 CALM      30.05R
FRENCHVILLE    SUNNY     48  29  47 CALM      30.03R
CARIBOU        SUNNY     50  31  48 CALM      30.04R
$$

NHZ002-005-008-009-011-012-014-031400-
NEW HAMPSHIRE

CITY           SKY/WX    TMP DP  RH WIND       PRES   REMARKS
PORTSMOUTH     MOSUNNY   53  44  71 E1        30.04S
ROCHESTER      SUNNY     54  43  66 CALM      30.04S
NASHUA         SUNNY     54  42  63 CALM      30.06R
MANCHESTER     SUNNY     57  41  55 W5        30.04R
CONCORD        SUNNY     56  40  55 CALM      30.05S
LACONIA        SUNNY     57  41  54 W5        30.02F
PLYMOUTH       FAIR      52  46  78 CALM      30.04F
BERLIN         CLOUDY    46  37  71 CALM      30.04S
WHITEFIELD     SUNNY     55  37  50 CALM      30.04S
JAFFREY        SUNNY     56  41  57 S3        30.06R
KEENE          SUNNY     54  41  62 CALM      30.06F
LEBANON        SUNNY     56  42  59 CALM      30.04S
MT WASHINGTON  MOSUNNY   37  27  65 NW16        N/A
$$

VTZ005-007-008-031400-
VERMONT

CITY           SKY/WX    TMP DP  RH WIND       PRES   REMARKS
ST JOHNSBURY     N/A     47  36  65 MISG      30.04R
MONTPELIER     PTSUNNY   59  38  45 E6        30.06S
BURLINGTON     PTSUNNY   65  38  36 S12       30.01R
$$

MAZ007-012-024-CTZ003-RIZ002-NYZ038-NYZ072-031400-
SOUTHERN NEW ENGLAND AND NY

CITY           SKY/WX    TMP DP  RH WIND       PRES   REMARKS
BOSTON         PTSUNNY   55  41  59 CALM      30.06S
WORCESTER      MOSUNNY   57  39  51 W5        30.05S
NANTUCKET      SUNNY     48  41  76 S8        30.11S
PROVIDENCE     PTSUNNY   54  36  50 VRB6      30.08R
HARTFORD       MOSUNNY   56  39  53 CALM      30.06S
ALBANY         MOSUNNY   59  42  53 S5        30.07S
NEW YORK CITY  MOSUNNY   59  40  49 CALM      30.09S
$$

ANZ081-ANZ082-ANZ150-NHZ014-MEZ023>029-031400-
COASTAL MARINE OBSERVATIONS

STATION/POSITION TIME  TEMP    WIND        PRES    WAVE
                       AIR SEA DIR/SP/G            HT/PER
                 (UTC) (F)     (DEG/KT/KT) (MB)    (FT/S)
$$

.............KEY..............
   WCI - WIND CHILL
   TC  - TEMPERATURE IN CELSIUS
   VSB - VISIBILITY IN MILES
   HX  - HEAT INDEX
   FAIR- INDICATES FEW OR NO CLOUDS BELOW 12,000 FT, WITH NO
         SIGNIFICANT WEATHER AND/OR OBSTRUCTIONS TO VISIBILITY.





USA.gov is the U.S. government's official web portal to all federal, state and local government web resources and services.